Gran Canaria > ESTACION METEOROLÓGICA Las Palmas de Gran Canaria

DATOS ACTUALES Online

Ultima actulizacion 13 minutos

22.7 ºC

Temperatura

93

Humedad (%)

1012.95

Presión (mb)

2

Precipitación (mm)

11.5 NO

Viento (Km/h)

DATOS DIARIOS

Temperatura últimas 24 horas (ºC)

Humedad últimas 24 horas (%)

Presión atmosférica últimas 24 horas (mb)

Precipitaciones últimas 23 horas (mm)

Viento últimas 24 horas (Km/h)

Hora Temperatura (°C) ºC Precipitación (mm) mm Presión (mb) mb Humedad (%) % Viento (Km/h) km/h
24 - 23:00 24.1 0 1015 76 13.4 NO
25 - 00:00 24.1 0 1015 76 10.4 N
25 - 01:00 24.1 0 1015 77 8.1 NO
25 - 02:00 24.1 0 1015 78 10.9 NO
25 - 03:00 24 0 1014 77 11.6 N
25 - 04:00 23.9 0 1013 79 12.1 N
25 - 05:00 23.6 0 1013 82 7.5 NO
25 - 06:00 23.5 0 1013 83 6.4 NO
25 - 07:00 23.6 0 1014 81 4.3 NW
25 - 08:00 23.3 0 1014 82 7.2 N
25 - 09:00 22.7 0.7 1015 89 8.2 NW
25 - 10:00 21.7 1.3 1015 84 10.7 N
25 - 11:00 22.1 1.9 1015 88 7.7 SW
25 - 12:00 21.9 2 1015 90 10.1 SW
25 - 13:00 22.9 2 1015 89 10.4 NW
25 - 14:00 22.4 2 1014 91 16.8 N
25 - 15:00 22.1 2 1014 92 13.5 N
25 - 16:00 22 2 1013 93 14.1 NO
25 - 17:00 21.8 2 1013 93 16.4 NO
25 - 18:00 21.9 2 1014 94 14.3 NO
25 - 19:00 21.9 2 1013 94 15.2 NO
25 - 20:00 22.1 2 1013 94 10.9 NO
25 - 21:00 22.3 2 1013 93 9.6 NO
25 - 22:00 22.7 2 1013 93 11.5 NO
25 - 23:00
Apalmet utiliza cookies propias y de terceros para mejorar la usabilidad y la experiencia web. Política de cookies.